Weather History for Versailles, OH

Change the Weather History Date:

Friday, September 27, 2013

  Actual Average (KDAY) Record (KDAY)
Temperature  
Mean Temperature 60 °F 61 °F  
Max Temperature 78 °F 71 °F 91 °F (1998)
Min Temperature 42 °F 50 °F 33 °F (1899)
Degree Days  
Heating Degree Days 5 6  
Month to date heating degree days 69  
Since 1 July heating degree days 71  
Cooling Degree Days 0 2  
Month to date cooling degree days 96  
Year to date cooling degree days 878  
Growing Degree Days 10 (Base 50)    
Moisture  
Dew Point 44 °F    
Average Humidity 63    
Maximum Humidity 100    
Minimum Humidity 20    
Precipitation  
Precipitation 0.01 in 0.11 in 3.73 in (2002)
Month to date precipitation 2.99  
Year to date precipitation 31.30  
Snow  
Snow 0.00 in 0.00 in - ()
Month to date snowfall 0.0  
Since 1 July snowfall 0.0  
Since 1 September snowfall 0.0  
Snow Depth -    
Sea Level Pressure  
Sea Level Pressure 30.15 in    
Wind  
Wind Speed 1 mph (ENE)    
Max Wind Speed 7 mph    
Max Gust Speed -    
Visibility 10 miles    
Events      
T = Trace of Precipitation, MM = Missing Value Source: NWS Daily Summary

Daily Weather History Graph

Daily Weather History Graph

Search for Another Location

Airport:

Trip Planner

Search our weather history database for the weather conditions in past years. The results will help you decide how hot, cold, wet, or windy it might be!

Date:

Astronomy

Sep. 27, 2013 Rise Set
Actual Time 7:30 AM EDT 7:26 PM EDT
Civil Twilight 7:03 AM EDT 7:53 PM EDT
Nautical Twilight 6:32 AM EDT 8:25 PM EDT
Astronomical Twilight 6:00 AM EDT 8:57 PM EDT
Moon 12:25 AM EDT (9/27) 3:04 PM EDT (9/27)
Length of Visible Light 12h 49m
Length of Day
11h 55m
Last Quarter, 45% of the Moon is Illuminated
Sep 27
Last Quarter
Oct 4
New
Oct 11
First Quarter
Oct 18
Full
Oct 26
Last Quarter

Hourly Weather History & Observations

Time (EDT) Temp. Windchill Dew Point Humidity Pressure Visibility Wind Dir Wind Speed Gust Speed Precip Events Conditions
12:15 AM 55.4 °F - 46.4 °F 72% 30.11 in 10.0 mi Calm Calm - N/A   Clear
12:35 AM 53.6 °F - 46.4 °F 77% 30.11 in 10.0 mi Calm Calm - N/A   Clear
12:55 AM 53.6 °F - 46.4 °F 77% 30.12 in 10.0 mi Calm Calm - N/A   Clear
1:15 AM 50.0 °F - 46.4 °F 87% 30.12 in 10.0 mi Calm Calm - N/A   Clear
1:35 AM 50.0 °F - 46.4 °F 87% 30.12 in 10.0 mi Calm Calm - N/A   Clear
1:55 AM 50.0 °F - 46.4 °F 87% 30.12 in 10.0 mi Calm Calm - N/A   Clear
2:15 AM 50.0 °F - 48.2 °F 94% 30.12 in 10.0 mi Calm Calm - N/A   Clear
2:35 AM 50.0 °F - 48.2 °F 94% 30.12 in 10.0 mi Calm Calm - N/A   Clear
2:55 AM 48.2 °F - 46.4 °F 93% 30.13 in 10.0 mi Calm Calm - N/A   Clear
3:15 AM 46.4 °F 45.2 °F 46.4 °F 100% 30.13 in 10.0 mi North 3.5 mph - N/A   Clear
3:35 AM 46.4 °F - 46.4 °F 100% 30.12 in 10.0 mi Calm Calm - N/A   Clear
3:55 AM 46.4 °F - 46.4 °F 100% 30.13 in 10.0 mi Calm Calm - N/A   Clear
4:15 AM 44.6 °F - 44.6 °F 100% 30.13 in 10.0 mi Calm Calm - N/A   Clear
4:35 AM 46.4 °F - 44.6 °F 93% 30.14 in 10.0 mi Calm Calm - N/A   Clear
4:55 AM 44.6 °F 43.1 °F 44.6 °F 100% 30.14 in 10.0 mi NE 3.5 mph - N/A   Clear
5:15 AM 44.6 °F 43.1 °F 44.6 °F 100% 30.14 in 10.0 mi NE 3.5 mph - N/A   Clear
5:35 AM 44.6 °F - 44.6 °F 100% 30.14 in 10.0 mi Calm Calm - 0.01 in   Clear
5:55 AM 44.6 °F - 44.6 °F 100% 30.14 in 10.0 mi Calm Calm - 0.01 in   Clear
6:15 AM 44.6 °F - 44.6 °F 100% 30.15 in 10.0 mi Calm Calm - N/A   Clear
6:35 AM 42.8 °F - 42.8 °F 100% 30.16 in 10.0 mi Calm Calm - N/A   Clear
6:55 AM 44.6 °F - 44.6 °F 100% 30.16 in 10.0 mi Calm Calm - N/A   Clear
7:15 AM 44.6 °F - 44.6 °F 100% 30.17 in 10.0 mi Calm Calm - N/A   Clear
7:35 AM 42.8 °F - 42.8 °F 100% 30.18 in 10.0 mi Calm Calm - N/A   Clear
7:55 AM 44.6 °F 43.1 °F 44.6 °F 100% 30.18 in 10.0 mi North 3.5 mph - N/A   Clear
8:15 AM 46.4 °F - 46.4 °F 100% 30.19 in 10.0 mi Calm Calm - N/A   Clear
8:35 AM 50.0 °F - 48.2 °F 94% 30.19 in 10.0 mi NE 4.6 mph - N/A   Clear
8:55 AM 51.8 °F - 50.0 °F 94% 30.19 in 10.0 mi NE 4.6 mph - N/A   Clear
9:15 AM 55.4 °F - 50.0 °F 82% 30.19 in 10.0 mi ENE 3.5 mph - N/A   Clear
9:35 AM 57.2 °F - 48.2 °F 72% 30.20 in 10.0 mi East 3.5 mph - N/A   Clear
9:55 AM 60.8 °F - 46.4 °F 59% 30.20 in 10.0 mi East 3.5 mph - N/A   Clear
10:15 AM 62.6 °F - 44.6 °F 52% 30.20 in 10.0 mi ENE 3.5 mph - N/A   Clear
10:35 AM 64.4 °F - 44.6 °F 49% 30.20 in 10.0 mi Calm Calm - N/A   Clear
10:55 AM 66.2 °F - 44.6 °F 46% 30.20 in 10.0 mi ESE 3.5 mph - N/A   Clear
11:15 AM 68.0 °F - 44.6 °F 43% 30.20 in 10.0 mi SE 3.5 mph - N/A   Clear
11:35 AM 69.8 °F - 42.8 °F 38% 30.20 in 10.0 mi East 3.5 mph - N/A   Clear
11:55 AM 71.6 °F - 42.8 °F 35% 30.20 in 10.0 mi ENE 4.6 mph - N/A   Clear
12:15 PM 71.6 °F - 42.8 °F 35% 30.20 in 10.0 mi Calm Calm - N/A   Clear
12:35 PM 73.4 °F - 42.8 °F 33% 30.20 in 10.0 mi East 5.8 mph - N/A   Clear
12:55 PM 73.4 °F - 42.8 °F 33% 30.19 in 10.0 mi ENE 4.6 mph - N/A   Clear
1:15 PM 73.4 °F - 42.8 °F 33% 30.18 in 10.0 mi ENE 3.5 mph - N/A   Clear
1:35 PM 75.2 °F - 41.0 °F 29% 30.18 in 10.0 mi ENE 4.6 mph - N/A   Clear
1:55 PM 77.0 °F - 37.4 °F 24% 30.17 in 10.0 mi ENE 4.6 mph - N/A   Clear
2:15 PM 77.0 °F - 35.6 °F 22% 30.17 in 10.0 mi Calm Calm - N/A   Clear
2:35 PM 77.0 °F - 33.8 °F 21% 30.16 in 7.0 mi ESE 6.9 mph - N/A   Clear
2:55 PM 78.8 °F - 35.6 °F 21% 30.15 in 10.0 mi NNE 3.5 mph - N/A   Clear
3:15 PM 78.8 °F - 35.6 °F 21% 30.15 in 10.0 mi Calm Calm - N/A   Clear
3:35 PM 78.8 °F - 35.6 °F 21% 30.14 in 10.0 mi Calm Calm - N/A   Clear
3:55 PM 78.8 °F - 33.8 °F 20% 30.14 in 10.0 mi ESE 6.9 mph - N/A   Clear
4:15 PM 78.8 °F - 35.6 °F 21% 30.14 in 10.0 mi East 5.8 mph - N/A   Clear
4:35 PM 78.8 °F - 37.4 °F 23% 30.14 in 10.0 mi NE 4.6 mph - N/A   Clear
4:55 PM 78.8 °F - 39.2 °F 24% 30.13 in 10.0 mi Calm Calm - N/A   Clear
5:15 PM 78.8 °F - 41.0 °F 26% 30.12 in 10.0 mi NE 4.6 mph - N/A   Clear
5:35 PM 78.8 °F - 42.8 °F 28% 30.12 in 10.0 mi East 6.9 mph - N/A   Clear
5:55 PM 78.8 °F - 42.8 °F 28% 30.12 in 10.0 mi ENE 4.6 mph - N/A   Clear
6:15 PM 78.8 °F - 42.8 °F 28% 30.12 in 10.0 mi East 3.5 mph - N/A   Clear
6:35 PM 73.4 °F - 44.6 °F 36% 30.12 in 10.0 mi East 4.6 mph - N/A   Clear
6:55 PM 71.6 °F - 44.6 °F 38% 30.12 in 10.0 mi Calm Calm - N/A   Clear
7:15 PM 69.8 °F - 48.2 °F 46% 30.12 in 10.0 mi Calm Calm - N/A   Clear
7:35 PM 68.0 °F - 48.2 °F 49% 30.12 in 10.0 mi Calm Calm - N/A   Clear
7:55 PM 66.2 °F - 46.4 °F 49% 30.12 in 10.0 mi ENE 3.5 mph - N/A   Clear
8:15 PM 62.6 °F - 46.4 °F 55% 30.12 in 10.0 mi Calm Calm - N/A   Clear
8:35 PM 62.6 °F - 46.4 °F 55% 30.12 in 10.0 mi Calm Calm - N/A   Clear
8:55 PM 62.6 °F - 48.2 °F 59% 30.13 in 10.0 mi Calm Calm - N/A   Clear
9:15 PM 60.8 °F - 48.2 °F 63% 30.14 in 10.0 mi Calm Calm - N/A   Clear
9:35 PM 60.8 °F - 48.2 °F 63% 30.14 in 10.0 mi Calm Calm - N/A   Clear
9:55 PM 60.8 °F - 48.2 °F 63% 30.15 in 10.0 mi Calm Calm - N/A   Clear
10:15 PM 57.2 °F - 48.2 °F 72% 30.16 in 10.0 mi NE 4.6 mph - N/A   Clear
10:35 PM 57.2 °F - 48.2 °F 72% 30.15 in 10.0 mi Calm Calm - N/A   Clear
10:55 PM 55.4 °F - 48.2 °F 77% 30.16 in 10.0 mi ENE 3.5 mph - N/A   Clear
11:15 PM 59.0 °F - 50.0 °F 72% 30.16 in 10.0 mi Calm Calm - N/A   Clear
11:35 PM 57.2 °F - 50.0 °F 77% 30.15 in 10.0 mi Calm Calm - N/A   Clear
11:55 PM 55.4 °F - 50.0 °F 82% 30.15 in 10.0 mi Calm Calm - N/A   Clear